Hourly Data Report for October 29, 2003

SHERBROOKE A
QUEBEC

45°26'00.000" N
71°41'00.000" W
241.40 m
7028124
71610
YSC

Download Data

Hourly Data (October 2003)
Hourly Data Report for October 29, 2003
TIME
LST
Temp Definition
°C
Dew Point Definition
°C
Rel Hum Definition
%
Precip. Amount Definition
mm

Wind Dir Definition
10's deg

Wind Spd Definition
km/h
Visibility Definition
km
Stn Press Definition
kPa
Hmdx Definition


Wind Chill Definition


Weather Definition


00:00 1.5 0.7 94   7 6 9.7 98.53      
01:00 2.4 1.4 93   8 7 12.9 98.48      
02:00 3.0 2.0 93   6 11 15.0 98.39      
03:00 3.6 2.3 91   7 9 15.0 98.32      
04:00 4.2 2.9 91   6 9 15.0 98.27      
05:00 4.7 3.4 91   5 9 12.9 98.26     Rain
06:00 4.9 4.0 94   6 9 8.0 98.16     Rain
07:00 5.1 4.5 96   3 6 4.0 98.06     Rain
08:00 5.7 5.1 96   5 11 3.2 97.94     Rain, Fog
09:00 6.1 5.6 97   3 11 4.8 97.75     Moderate Rain, Fog
10:00 6.2 5.2 93   3 9 3.2 97.67     Moderate Rain, Fog
11:00 6.1 5.6 97   4 15 3.2 97.42     Moderate Rain, Fog
12:00 6.2 5.6 96   4 19 6.4 97.10     Rain, Fog
13:00 6.7 6.2 97   3 11 19.3 96.85     Rain
14:00 7.1 6.8 98   28 13 3.2 96.89     Rain, Drizzle, Fog
15:00 7.2 7.0 99   19 6 3.2 96.93     Drizzle, Fog
16:00 6.9 6.6 98   22 13 6.4 97.07     Rain, Fog
17:00 6.9 6.5 97   21 6 12.9 97.19     Drizzle
18:00 7.0 6.7 98   23 11 15.0 97.29      
19:00 6.7 6.0 95   25 15 15.0 97.38      
20:00 6.3 5.6 95   25 13 15.0 97.45     Drizzle
21:00 6.1 5.4 95   24 15 9.7 97.52      
22:00 6.0 4.8 92   25 20 15.0 97.58      
23:00 5.6 4.6 93   24 13 15.0 97.56      

Notes on Data Quality.

Legend

  • E = Estimated
  • M = Missing
  • NA = Not Available*
  • [empty] = Indicates an unobserved value
Date modified: